sat.trackr.live / text

‹ back to catalog

TANAGER-1

NORAD 60507 · 2024-149AR

PAYLOAD ACTIVE UNKNOWN

§ Identity

Operator
Country
US
Launch date
2024-08-16
Launch site
AFWTR
Launch vehicle
Mass (kg)
RCS (m²)

Purposes: earth_obs

External: N2YO · Heavens-Above · Gunter

§ Orbital elements

Epoch: 2026-09-19T12:24:15.236064Z

Period
93.27 min
Inclination
97.2274°
Eccentricity
0.0000867
Mean motion
15.43933904 rev/d
Perigee alt
433.9 km
Apogee alt
435.1 km
Semi-major
6,812.6 km
B*
2.5441e-4
RAAN
356.2353°
Arg perigee
22.9221°
Mean anomaly
337.2066°
Rev number
11,759

§ Raw data

TANAGER-11 60507U 24149AR  26262.51684301  .00011486  00000+0  25441-3 0  99922 60507  97.2274 356.2353 0000867  22.9221 337.2066 15.43933904117598

JSON: /api/v1/satellites/60507 · /tle

For live sub-satellite position, see the globe view (requires WebGL).

§ Visibility from observer

Set your observer location to see the next 7 days of passes ≥ 10°. The values pass through the URL so the page stays shareable.

No JS? Fill the form by hand. The geolocation button needs JavaScript.

§ Radio — SatNOGS DB

ModeDescriptionDownlinkUplink
FM Mode X - Transmitter 8.375 GHz

1 transmitter · refreshed weekly from db.satnogs.org